SCP
0 0 0 0 0 0 0 0 0 0 0 -0 -0 -0 -0 -0 -0 0 0 1 1 0 0 1 0 1 0 0 0 0 0 0 0 0 0 0 0 0 0 0 0 0 0
0 0 0 0 0 0 0 0 0 0 0 0 0 0 -0 0 -0 -0 -0 0 0 1 0 0 0 0 0 0 0 0 0 0 0 0 0 0 0 0 0 0 0 0 0
0 0 0 0 0 0 0 0 0 0 0 0 0 0 0 -0 -0 -0 -0 -0 0 0 0 0 0 0 0 0 0 0 0 0 0 0 0 0 0 0 0 0 0 0 0
0 0 0 0 0 0 0 0 0 0 0 0 0 0 0 -0 -0 -0 -0 -0 -0 0 0 0 0 0 0 0 0 0 0 0 0 0 0 0 0 0 0 0 0 0 0
0 0 0 0 0 0 0 0 0 0 0 0 0 0 0 -0 -0 -0 -0 -0 -0 -0 0 0 0 0 0 0 0 0 0 0 0 0 0 0 0 0 0 0 0 0 0
0 0 0 0 0 0 0 0 0 0 0 0 -0 0 0 -0 -0 -0 -0 -0 -0 -0 -0 0 0 0 0 0 0 0 0 0 0 0 0 0 0 0 0 0 0 0 0
0 0 0 0 0 0 0 0 0 0 0 -0 -0 -0 -0 0 -0 -0 -0 -0 -0 -0 -0 0 0 0 0 0 0 0 0 0 0 0 0 0 0 0 0 0 0 0 0
0 0 0 0 0 0 0 0 0 0 0 0 0 0 -0 -0 0 -0 -0 -0 -0 -0 -0 -0 0 0 0 0 0 0 0 0 0 0 0 0 0 0 0 0 0 0 0
0 0 0 0 0 0 0 0 0 0 -0 -0 -0 0 0 0 0 0 -0 -0 -0 -0 -0 -0 -0 0 0 0 0 0 0 0 0 0 0 0 0 0 0 0 0 0 0
0 0 0 0 0 0 0 0 0 0 -0 -0 0 -0 0 0 0 0 0 -0 -0 -0 -0 -0 -0 0 0 0 0 0 0 0 0 0 0 0 0 0 0 0 0 0 0
0 0 0 0 0 0 0 0 0 0 -0 -0 0 0 -0 0 0 0 0 -0 -0 -0 -0 -0 -0 -0 0 0 0 0 0 0 0 0 0 0 0 0 0 0 0 0 0
0 0 0 0 0 0 0 0 0 0 0 0 0 0 0 0 0 0 0 0 -0 -0 -0 -0 -0 -0 -0 0 0 0 0 0 0 0 0 0 0 0 0 0 0 0 0
0 0 0 0 0 0 0 0 0 0 0 0 0 0 0 0 0 0 0 0 0 0 -0 -0 -0 -0 -0 0 0 0 0 0 0 0 0 0 0 0 0 0 0 0 0
0 0 0 0 0 0 0 0 0 0 0 0 0 0 0 0 0 0 0 0 0 0 -0 -0 -0 -0 -0 -0 0 0 0 0 0 0 0 0 0 0 0 0 0 0 0
0 0 0 0 0 0 0 0 0 0 0 0 0 0 0 0 0 0 -0 -0 -0 -0 0 -0 0 -0 -0 -0 0 0 0 0 0 0 0 0 0 0 0 0 0 0 0
0 0 0 0 0 0 0 0 0 0 0 0 0 0 0 0 -0 0 -0 -0 -0 -0 -0 0 0 0 -0 0 0 0 0 0 0 0 0 0 0 0 0 0 0 0 0
0 0 0 0 0 0 0 0 0 0 0 0 0 0 0 0 -0 0 0 0 -0 -0 -0 -0 0 0 0 0 0 0 0 0 0 0 0 0 0 0 0 0 0 0 0
0 0 0 0 0 0 0 0 0 0 0 0 0 0 0 0 -0 0 0 0 -0 -0 -0 -0 -0 -0 0 0 0 0 0 0 0 0 0 0 0 0 0 0 0 0 0
0 0 0 0 0 0 0 0 0 0 0 0 0 0 0 0 0 0 0 0 0 0 0 -0 -0 0 0 0 0 0 0 0 0 0 0 0 0 0 0 0 0 0 0
0 0 0 0 0 0 0 0 0 0 0 0 0 0 0 0 0 0 0 0 0 0 0 0 0 0 0 0 0 0 0 0 0 0 0 0 0 0 0 0 0 0 0
0 0 0 0 0 0 0 0 0 0 0 0 0 0 0 0 0 0 0 0 0 0 0 0 0 0 0 0 0 0 0 0 0 0 0 0 0 0 0 0 0 0 0
0 0 0 0 0 0 0 0 0 0 0 0 0 0 -0 -0 0 0 0 0 0 0 0 0 0 0 0 0 0 0 0 0 0 0 0 0 0 0 0 0 0 0 0
0 0 0 0 0 0 0 0 0 0 0 0 0 0 -0 -0 -0 0 0 0 0 0 0 0 0 0 0 0 0 0 0 0 0 0 0 0 0 0 0 0 0 0 0
0 0 0 0 0 0 0 0 0 -0 0 0 -0 -0 -0 -0 -0 0 0 0 0 0 0 0 0 0 0 0 0 0 0 0 0 0 0 0 0 0 0 0 0 0 0
0 0 0 0 0 0 -0 0 0 -0 -0 0 0 -0 -0 -0 -0 -0 0 0 0 0 0 0 0 0 0 0 0 0 0 0 0 0 0 0 0 0 0 0 0 0 0
0 0 0 0 0 0 -0 0 -0 -0 -0 -0 0 0 -0 -0 -0 -0 0 0 0 0 0 0 0 0 0 0 0 0 0 0 0 0 0 0 0 0 0 0 0 0 0
Wind_Speed_500mb
44 49 52 56 58 62 64 62 67 70 73 77 72 75 74 74 81 60 68 75 83 91 82 93 89 83 91 84 86 80 87 89 92 92 80 68 66 64 61 62 66 65 66
52 57 56 60 65 70 73 68 70 74 71 70 72 69 79 81 79 84 71 85 81 86 103 93 92 92 92 89 93 95 97 97 108 102 90 67 73 72 69 69 69 71 73
59 60 60 70 75 77 79 81 77 86 84 79 75 78 72 85 80 70 88 91 66 87 87 100 106 103 101 99 97 106 109 104 103 99 105 60 48 85 81 82 78 74 68
64 61 69 87 81 91 90 86 82 84 83 78 78 76 76 71 82 90 81 90 91 90 84 94 94 115 113 108 111 113 116 119 112 87 77 73 73 88 53 80 82 81 79
59 68 82 90 92 94 97 100 92 95 86 79 79 81 81 73 73 85 92 82 85 85 78 101 101 96 121 121 117 114 125 122 117 93 82 73 56 75 67 62 73 93 86
64 70 87 89 97 103 105 98 94 99 87 87 87 85 83 83 78 79 90 83 71 76 87 79 91 100 120 106 112 114 122 121 121 113 97 83 82 91 81 65 77 86 85
64 78 93 94 105 109 110 102 96 101 98 95 90 90 87 82 79 82 82 86 83 64 61 63 80 103 96 116 106 111 121 122 115 124 113 95 86 89 94 84 85 80 85
70 85 93 93 100 104 100 98 99 87 85 81 81 82 82 79 74 79 76 89 75 71 66 60 68 101 110 99 117 115 119 127 122 126 124 116 92 83 99 102 101 69 83
75 86 90 95 101 99 95 97 106 104 103 98 87 72 64 73 78 78 77 87 81 71 77 58 83 52 103 120 114 124 125 127 135 126 128 112 101 97 86 91 109 106 61
81 85 84 95 97 103 104 105 98 96 98 91 85 96 89 67 55 73 78 73 75 79 67 72 71 89 82 120 138 118 127 130 125 138 123 116 109 102 92 84 106 105 85
87 89 96 99 100 104 103 102 99 96 94 89 82 82 82 94 70 58 73 75 77 72 63 62 65 58 54 122 119 134 126 133 127 130 129 123 109 114 103 98 97 100 89
82 86 94 91 95 97 101 99 95 92 90 89 91 87 84 80 87 74 58 54 73 67 71 63 63 64 81 72 125 125 124 126 132 127 134 124 122 112 114 118 104 91 84
81 86 91 90 95 102 104 97 98 93 88 95 87 88 89 82 77 89 70 58 53 57 72 68 69 58 73 60 124 118 121 126 127 132 136 128 125 118 114 113 114 99 86
78 87 91 93 96 99 105 101 98 101 92 87 93 88 82 88 89 83 90 81 56 40 56 71 73 61 63 84 103 123 127 127 128 125 136 124 138 132 116 110 112 105 95
79 83 94 97 100 107 113 108 104 94 99 91 90 96 89 87 79 87 90 102 93 71 54 69 75 71 64 91 95 133 135 130 128 138 138 132 138 136 124 111 112 111 103
78 83 95 102 107 102 111 117 112 107 100 99 92 90 88 78 79 93 88 87 106 108 88 82 95 85 68 84 85 131 136 132 135 139 142 139 136 126 115 115 114 117 118
73 78 88 94 98 105 108 115 113 114 107 98 94 94 86 74 74 86 82 77 78 89 102 97 97 98 75 89 86 124 133 136 135 137 142 136 126 119 109 107 111 114 121
71 76 85 98 111 114 110 116 112 108 102 99 95 87 84 78 83 68 81 77 70 73 69 72 92 85 74 78 93 138 131 128 134 133 132 133 135 121 114 111 111 113 115
73 76 84 90 112 106 112 123 113 101 102 95 91 93 90 87 82 72 72 76 64 61 51 63 82 75 73 74 103 138 131 127 127 133 128 134 146 134 132 119 117 114 114
64 80 90 108 111 113 112 122 112 103 98 102 102 97 92 85 80 73 62 71 60 56 63 68 68 68 62 66 108 123 132 130 121 126 118 136 136 127 129 129 116 112 108
76 88 100 106 109 112 110 130 110 103 107 107 105 91 79 72 62 53 46 58 55 61 58 60 58 54 58 63 95 126 129 121 117 116 118 109 121 125 130 123 125 117 103
78 80 97 110 111 110 105 127 115 112 112 110 99 92 83 76 61 45 35 43 38 48 56 52 50 48 55 63 90 117 118 114 117 106 104 102 107 124 113 119 117 108 107
69 77 95 107 109 109 106 123 123 114 116 107 103 97 87 62 51 48 30 32 28 34 40 42 43 41 46 59 86 87 112 128 107 100 95 93 87 85 96 116 116 106 114
71 83 95 101 107 106 108 114 118 111 110 106 100 95 82 68 54 34 26 26 25 30 36 35 38 33 43 59 81 87 113 99 88 86 87 81 77 75 76 86 86 106 122
68 75 83 92 99 101 105 111 116 106 108 102 94 93 87 71 54 34 39 29 37 43 40 39 37 33 48 61 70 82 96 100 88 82 73 71 72 74 82 93 96 105 119
68 74 77 85 94 95 98 104 109 100 99 100 100 93 89 78 64 52 33 19 34 37 40 39 36 38 47 59 62 66 85 88 83 78 78 78 76 83 87 93 94 104 118
Wind_Direction_500mb
357 352 351 349 348 347 338 332 334 329 328 324 318 317 316 307 293 296 291 268 258 246 230 233 225 220 216 210 208 201 197 196 186 177 173 184 195 195 193 193 203 202 186
350 349 350 349 345 341 338 326 322 328 317 312 310 310 308 306 314 294 284 290 258 247 245 236 229 225 219 209 209 202 195 191 192 180 173 171 183 195 198 198 196 192 185
351 351 352 345 339 334 331 326 320 317 317 305 305 306 305 305 305 308 286 274 297 252 246 235 234 229 225 214 210 204 197 190 193 192 179 169 187 186 194 198 198 199 189
353 352 344 340 335 329 325 320 315 313 312 304 299 300 302 297 302 304 312 292 268 293 253 239 233 220 232 217 207 205 201 198 194 193 189 182 183 174 179 187 187 187 186
348 346 340 334 329 325 322 317 311 312 308 303 295 296 294 295 295 297 300 318 280 279 314 234 227 232 219 221 207 207 202 204 199 194 186 189 186 184 183 184 184 184 183
343 336 334 328 325 324 320 316 310 309 307 301 298 292 291 291 293 289 293 304 298 277 282 239 230 227 218 215 208 209 207 205 205 193 187 191 187 185 184 184 184 177 181
336 333 330 328 325 324 322 318 317 310 308 302 298 292 290 285 288 285 285 297 313 296 286 292 239 225 227 215 215 208 205 204 198 196 190 198 198 201 196 190 187 180 176
332 330 328 326 325 323 321 316 318 317 312 309 304 295 291 282 283 282 278 287 301 302 275 283 301 220 214 226 208 210 209 202 200 202 204 201 197 201 201 200 194 181 181
329 328 326 327 326 326 323 318 315 311 304 299 291 290 299 288 282 280 277 280 291 305 288 275 257 310 225 210 207 208 205 200 201 200 199 202 204 198 195 201 204 198 184
326 328 328 328 329 327 325 323 320 314 310 309 301 289 284 285 296 281 274 275 283 293 291 284 271 256 225 206 207 200 200 197 197 202 206 207 208 200 200 195 202 206 199
329 329 328 330 328 329 326 323 321 318 314 309 311 306 299 277 276 293 278 272 277 283 283 295 286 253 295 206 200 202 201 203 199 202 200 209 217 208 208 211 216 208 204
326 324 328 327 328 328 327 324 322 318 313 310 306 305 303 296 283 275 285 284 270 274 286 290 301 264 252 251 210 198 206 205 198 203 205 208 214 213 204 209 213 213 211
322 325 325 327 328 330 329 325 321 318 314 311 308 303 303 304 294 272 272 274 277 282 277 283 292 274 242 281 204 212 210 208 206 205 206 204 208 215 215 214 215 215 213
323 324 324 326 327 330 329 324 321 319 315 312 306 304 303 297 299 288 269 262 264 279 275 276 286 286 261 239 209 203 208 211 208 211 208 205 202 214 215 215 216 214 212
325 324 323 323 328 328 328 326 322 320 317 312 307 301 302 301 297 297 285 264 256 257 267 279 284 287 270 229 216 205 203 210 205 207 207 208 205 215 218 216 214 211 211
323 322 319 322 324 323 326 325 320 319 318 311 308 305 302 299 292 295 290 278 261 254 260 273 280 291 272 223 223 207 204 210 206 204 208 207 211 216 217 220 218 213 210
319 319 315 317 319 321 323 324 318 318 317 313 308 307 306 298 296 292 292 282 270 267 261 268 274 278 268 227 227 217 210 208 208 207 207 210 214 216 217 219 220 216 216
318 317 317 319 325 327 324 327 321 317 317 312 310 310 306 300 290 287 284 283 275 260 254 255 266 267 263 228 224 212 204 207 209 210 211 214 215 217 217 217 216 221 219
316 317 318 321 328 327 328 332 322 318 318 315 313 309 307 304 300 285 284 283 269 250 243 254 255 260 257 229 221 208 202 208 212 214 214 212 215 213 217 219 217 218 221
321 324 327 331 338 336 333 334 325 321 321 318 316 312 307 302 295 285 277 279 259 252 245 252 259 255 258 230 220 214 203 211 214 216 218 216 215 218 221 220 217 218 220
326 333 334 337 342 341 335 337 329 324 323 321 322 324 325 319 309 291 271 274 256 240 247 253 255 263 247 237 219 217 208 211 211 210 209 214 217 218 221 219 219 216 218
331 334 338 339 346 346 337 342 334 330 330 333 340 340 337 331 324 300 268 267 253 249 256 261 272 270 236 226 221 215 218 216 211 211 215 216 225 220 219 223 222 220 218
329 335 340 339 346 348 348 344 342 339 342 347 347 341 336 334 326 313 276 267 241 254 260 264 270 281 232 227 219 220 223 218 212 214 217 219 216 221 222 221 222 221 222
336 341 341 341 345 349 351 351 348 350 352 349 346 345 349 349 349 318 278 264 249 249 253 263 272 275 243 230 218 221 214 213 211 215 216 218 218 223 233 229 232 229 221
338 342 341 340 346 350 351 355 351 356 358 357 348 354 355 356 350 345 317 261 258 263 269 278 262 257 245 234 224 216 209 212 208 209 211 210 217 224 225 225 227 230 227
341 343 345 345 348 351 354 357 353 360 3 4 357 2 359 1 5 2 336 305 283 277 276 274 259 257 240 235 226 224 220 213 211 210 211 212 216 219 221 223 223 224 222
Wind_Speed_850mb
44 49 52 56 58 62 64 62 67 70 73 77 72 75 74 74 81 60 68 75 83 91 82 93 89 83 91 84 86 80 87 89 92 92 80 68 66 64 61 62 66 65 66
52 57 56 60 65 70 73 68 70 74 71 70 72 69 79 81 79 84 71 85 81 86 103 93 92 92 92 89 93 95 97 97 108 102 90 67 73 72 69 69 69 71 73
59 60 60 70 75 77 79 81 77 86 84 79 75 78 72 85 80 70 88 91 66 87 87 100 106 103 101 99 97 106 109 104 103 99 105 60 48 85 81 82 78 74 68
64 61 69 87 81 91 90 86 82 84 83 78 78 76 76 71 82 90 81 90 91 90 84 94 94 115 113 108 111 113 116 119 112 87 77 73 73 88 53 80 82 81 79
59 68 82 90 92 94 97 100 92 95 86 79 79 81 81 73 73 85 92 82 85 85 78 101 101 96 121 121 117 114 125 122 117 93 82 73 56 75 67 62 73 93 86
64 70 87 89 97 103 105 98 94 99 87 87 87 85 83 83 78 79 90 83 71 76 87 79 91 100 120 106 112 114 122 121 121 113 97 83 82 91 81 65 77 86 85
64 78 93 94 105 109 110 102 96 101 98 95 90 90 87 82 79 82 82 86 83 64 61 63 80 103 96 116 106 111 121 122 115 124 113 95 86 89 94 84 85 80 85
70 85 93 93 100 104 100 98 99 87 85 81 81 82 82 79 74 79 76 89 75 71 66 60 68 101 110 99 117 115 119 127 122 126 124 116 92 83 99 102 101 69 83
75 86 90 95 101 99 95 97 106 104 103 98 87 72 64 73 78 78 77 87 81 71 77 58 83 52 103 120 114 124 125 127 135 126 128 112 101 97 86 91 109 106 61
81 85 84 95 97 103 104 105 98 96 98 91 85 96 89 67 55 73 78 73 75 79 67 72 71 89 82 120 138 118 127 130 125 138 123 116 109 102 92 84 106 105 85
87 89 96 99 100 104 103 102 99 96 94 89 82 82 82 94 70 58 73 75 77 72 63 62 65 58 54 122 119 134 126 133 127 130 129 123 109 114 103 98 97 100 89
82 86 94 91 95 97 101 99 95 92 90 89 91 87 84 80 87 74 58 54 73 67 71 63 63 64 81 72 125 125 124 126 132 127 134 124 122 112 114 118 104 91 84
81 86 91 90 95 102 104 97 98 93 88 95 87 88 89 82 77 89 70 58 53 57 72 68 69 58 73 60 124 118 121 126 127 132 136 128 125 118 114 113 114 99 86
78 87 91 93 96 99 105 101 98 101 92 87 93 88 82 88 89 83 90 81 56 40 56 71 73 61 63 84 103 123 127 127 128 125 136 124 138 132 116 110 112 105 95
79 83 94 97 100 107 113 108 104 94 99 91 90 96 89 87 79 87 90 102 93 71 54 69 75 71 64 91 95 133 135 130 128 138 138 132 138 136 124 111 112 111 103
78 83 95 102 107 102 111 117 112 107 100 99 92 90 88 78 79 93 88 87 106 108 88 82 95 85 68 84 85 131 136 132 135 139 142 139 136 126 115 115 114 117 118
73 78 88 94 98 105 108 115 113 114 107 98 94 94 86 74 74 86 82 77 78 89 102 97 97 98 75 89 86 124 133 136 135 137 142 136 126 119 109 107 111 114 121
71 76 85 98 111 114 110 116 112 108 102 99 95 87 84 78 83 68 81 77 70 73 69 72 92 85 74 78 93 138 131 128 134 133 132 133 135 121 114 111 111 113 115
73 76 84 90 112 106 112 123 113 101 102 95 91 93 90 87 82 72 72 76 64 61 51 63 82 75 73 74 103 138 131 127 127 133 128 134 146 134 132 119 117 114 114
64 80 90 108 111 113 112 122 112 103 98 102 102 97 92 85 80 73 62 71 60 56 63 68 68 68 62 66 108 123 132 130 121 126 118 136 136 127 129 129 116 112 108
76 88 100 106 109 112 110 130 110 103 107 107 105 91 79 72 62 53 46 58 55 61 58 60 58 54 58 63 95 126 129 121 117 116 118 109 121 125 130 123 125 117 103
78 80 97 110 111 110 105 127 115 112 112 110 99 92 83 76 61 45 35 43 38 48 56 52 50 48 55 63 90 117 118 114 117 106 104 102 107 124 113 119 117 108 107
69 77 95 107 109 109 106 123 123 114 116 107 103 97 87 62 51 48 30 32 28 34 40 42 43 41 46 59 86 87 112 128 107 100 95 93 87 85 96 116 116 106 114
71 83 95 101 107 106 108 114 118 111 110 106 100 95 82 68 54 34 26 26 25 30 36 35 38 33 43 59 81 87 113 99 88 86 87 81 77 75 76 86 86 106 122
68 75 83 92 99 101 105 111 116 106 108 102 94 93 87 71 54 34 39 29 37 43 40 39 37 33 48 61 70 82 96 100 88 82 73 71 72 74 82 93 96 105 119
68 74 77 85 94 95 98 104 109 100 99 100 100 93 89 78 64 52 33 19 34 37 40 39 36 38 47 59 62 66 85 88 83 78 78 78 76 83 87 93 94 104 118
Wind_Direction_850mb
357 352 351 349 348 347 338 332 334 329 328 324 318 317 316 307 293 296 291 268 258 246 230 233 225 220 216 210 208 201 197 196 186 177 173 184 195 195 193 193 203 202 186
350 349 350 349 345 341 338 326 322 328 317 312 310 310 308 306 314 294 284 290 258 247 245 236 229 225 219 209 209 202 195 191 192 180 173 171 183 195 198 198 196 192 185
351 351 352 345 339 334 331 326 320 317 317 305 305 306 305 305 305 308 286 274 297 252 246 235 234 229 225 214 210 204 197 190 193 192 179 169 187 186 194 198 198 199 189
353 352 344 340 335 329 325 320 315 313 312 304 299 300 302 297 302 304 312 292 268 293 253 239 233 220 232 217 207 205 201 198 194 193 189 182 183 174 179 187 187 187 186
348 346 340 334 329 325 322 317 311 312 308 303 295 296 294 295 295 297 300 318 280 279 314 234 227 232 219 221 207 207 202 204 199 194 186 189 186 184 183 184 184 184 183
343 336 334 328 325 324 320 316 310 309 307 301 298 292 291 291 293 289 293 304 298 277 282 239 230 227 218 215 208 209 207 205 205 193 187 191 187 185 184 184 184 177 181
336 333 330 328 325 324 322 318 317 310 308 302 298 292 290 285 288 285 285 297 313 296 286 292 239 225 227 215 215 208 205 204 198 196 190 198 198 201 196 190 187 180 176
332 330 328 326 325 323 321 316 318 317 312 309 304 295 291 282 283 282 278 287 301 302 275 283 301 220 214 226 208 210 209 202 200 202 204 201 197 201 201 200 194 181 181
329 328 326 327 326 326 323 318 315 311 304 299 291 290 299 288 282 280 277 280 291 305 288 275 257 310 225 210 207 208 205 200 201 200 199 202 204 198 195 201 204 198 184
326 328 328 328 329 327 325 323 320 314 310 309 301 289 284 285 296 281 274 275 283 293 291 284 271 256 225 206 207 200 200 197 197 202 206 207 208 200 200 195 202 206 199
329 329 328 330 328 329 326 323 321 318 314 309 311 306 299 277 276 293 278 272 277 283 283 295 286 253 295 206 200 202 201 203 199 202 200 209 217 208 208 211 216 208 204
326 324 328 327 328 328 327 324 322 318 313 310 306 305 303 296 283 275 285 284 270 274 286 290 301 264 252 251 210 198 206 205 198 203 205 208 214 213 204 209 213 213 211
322 325 325 327 328 330 329 325 321 318 314 311 308 303 303 304 294 272 272 274 277 282 277 283 292 274 242 281 204 212 210 208 206 205 206 204 208 215 215 214 215 215 213
323 324 324 326 327 330 329 324 321 319 315 312 306 304 303 297 299 288 269 262 264 279 275 276 286 286 261 239 209 203 208 211 208 211 208 205 202 214 215 215 216 214 212
325 324 323 323 328 328 328 326 322 320 317 312 307 301 302 301 297 297 285 264 256 257 267 279 284 287 270 229 216 205 203 210 205 207 207 208 205 215 218 216 214 211 211
323 322 319 322 324 323 326 325 320 319 318 311 308 305 302 299 292 295 290 278 261 254 260 273 280 291 272 223 223 207 204 210 206 204 208 207 211 216 217 220 218 213 210
319 319 315 317 319 321 323 324 318 318 317 313 308 307 306 298 296 292 292 282 270 267 261 268 274 278 268 227 227 217 210 208 208 207 207 210 214 216 217 219 220 216 216
318 317 317 319 325 327 324 327 321 317 317 312 310 310 306 300 290 287 284 283 275 260 254 255 266 267 263 228 224 212 204 207 209 210 211 214 215 217 217 217 216 221 219
316 317 318 321 328 327 328 332 322 318 318 315 313 309 307 304 300 285 284 283 269 250 243 254 255 260 257 229 221 208 202 208 212 214 214 212 215 213 217 219 217 218 221
321 324 327 331 338 336 333 334 325 321 321 318 316 312 307 302 295 285 277 279 259 252 245 252 259 255 258 230 220 214 203 211 214 216 218 216 215 218 221 220 217 218 220
326 333 334 337 342 341 335 337 329 324 323 321 322 324 325 319 309 291 271 274 256 240 247 253 255 263 247 237 219 217 208 211 211 210 209 214 217 218 221 219 219 216 218
331 334 338 339 346 346 337 342 334 330 330 333 340 340 337 331 324 300 268 267 253 249 256 261 272 270 236 226 221 215 218 216 211 211 215 216 225 220 219 223 222 220 218
329 335 340 339 346 348 348 344 342 339 342 347 347 341 336 334 326 313 276 267 241 254 260 264 270 281 232 227 219 220 223 218 212 214 217 219 216 221 222 221 222 221 222
336 341 341 341 345 349 351 351 348 350 352 349 346 345 349 349 349 318 278 264 249 249 253 263 272 275 243 230 218 221 214 213 211 215 216 218 218 223 233 229 232 229 221
338 342 341 340 346 350 351 355 351 356 358 357 348 354 355 356 350 345 317 261 258 263 269 278 262 257 245 234 224 216 209 212 208 209 211 210 217 224 225 225 227 230 227
341 343 345 345 348 351 354 357 353 360 3 4 357 2 359 1 5 2 336 305 283 277 276 274 259 257 240 235 226 224 220 213 211 210 211 212 216 219 221 223 223 224 222